AirNav   ATP
 
 1001 users online  

IL17 Center Point Heliport
Oak Brook, Illinois, USA

GOING TO OAK BROOK?


FAA INFORMATION EFFECTIVE 09 NOVEMBER 2017

Location

FAA Identifier: IL17
Lat/Long: 41-50-59.0000N / 087-55-38.0000W
41-50.983333N / 087-55.633333W
41.8497222 / -87.9272222
(estimated)
Elevation: 660 ft. / 201 m (estimated)
Time zone: UTC -6 (UTC -5 during Daylight Saving Time)
Zip code: 60523

Heliport Operations

Heliport use: Private use. Permission required prior to landing
Activation date: 03/2005
Control tower: no
ARTCC: CHICAGO CENTER
FSS: KANKAKEE FLIGHT SERVICE STATION
Attendance: UNATNDD
Wind indicator: yes
Segmented circle: no

Heliport Communications

WX ASOS at ORD (8 nm N): PHONE 773-462-0118
WX ASOS at MDW (9 nm SE): PHONE 773-884-4424
WX AWOS-3 at 06C (11 nm NW): 128.275 ((847) 895-2887)
WX ASOS at DPA (15 nm W): PHONE 630-584-2728
WX ASOS at PWK (16 nm N): PHONE 847-465-0291
WX AWOS-3 at LOT (16 nm SW): 118.525 (815-588-4802)

Nearby radio navigation aids

VOR radial/distance  VOR name  Freq  Var
ORDr185/8.3CHICAGO O'HARE VOR/DME113.9002E
DPAr095/19.1DUPAGE VOR/DME108.4002E
OBKr179/22.3NORTHBROOK VOR/DME113.0002W
JOTr042/25.3JOLIET VORTAC112.3002E
CGTr320/25.9CHICAGO HEIGHTS VORTAC114.2002E
EONr348/35.3PEOTONE VORTAC113.2002E

Heliport Services

Runway Information

Helipad H1

Dimensions: 56 x 56 ft. / 17 x 17 m
Surface: asphalt
Traffic pattern: leftleft

Heliport Ownership and Management from official FAA records

Ownership: Privately-owned
Owner: CENTER POINT PROPERTIES TRUST
1808 SWIFT DRIVE, STE. A
OAK BROOK, IL 60523-1501
Phone 630-586-8158
Manager: MICHELLE GRANA
1808 SWIFT DRIVE, STE. A
OAK BROOK, IL 60523-1501
Phone (630) 586-8155

Instrument Procedures

There are no published instrument procedures at IL17.

Some nearby airports with instrument procedures:

KORD - Chicago O'Hare International Airport (8 nm N)
KMDW - Chicago Midway International Airport (9 nm SE)
1C5 - Bolingbrook's Clow International Airport (13 nm SW)
KDPA - DuPage Airport (15 nm W)
KPWK - Chicago Executive Airport (16 nm N)
KLOT - Lewis University Airport (16 nm SW)
 
Loc | Ops | Rwys | IFR | FBO | Links
Com | Nav | Svcs | Stats | Notes


 
Area around IL17 (Center Point Heliport)
 
Road maps at: MapQuest Bing Google
 
Aerial photo
No photo
 
Sectional chart

 
Airport distance calculator
Flying to Center Point Heliport? Find the distance to fly.

From to IL17

Sunrise and sunset
Times for 24-Nov-2017
 Local
(UTC-6)
 Zulu
(UTC)
Morning civil twilight06:2212:22
Sunrise06:5312:53
Sunset16:2422:24
Evening civil twilight16:5422:54

Current date and time
Zulu (UTC)  24-Nov-2017 19:24:56
Local (UTC-6)  24-Nov-2017 13:24:56
 
METAR
KORD 
8nm N 
241851Z 19017G22KT 10SM FEW190 16/03 A2954 RMK AO2 PK WND 20029/1832 SLP003 T01560028
KMDW 
9nm SE 
241853Z 19015G25KT 10SM FEW190 15/03 A2956 RMK AO2 SLP012 T01500028
4IS3 
15nm E 
SuperAWOS
241855Z AUTO 13012G27KT 040V220 10SM 14/03 A2959
KDPA 
15nm W 
241852Z 19015G30KT 10SM CLR 16/04 A2953 RMK AO2 PK WND 18030/1843 SLP002 T01560044
KLOT 
16nm SW 
241855Z AUTO 20018G26KT 10SM CLR 16/04 A2956 RMK AO2 T01550040
KPWK 
16nm N 
241852Z 19018G23KT 10SM CLR 17/03 A2953 RMK AO2 SLP003 T01670028
TAF
KORD 
8nm N 
241730Z 2418/2524 20017G29KT P6SM FEW120 FM250100 24014KT P6SM SCT080 BKN120 FM250500 31014G22KT P6SM FEW250
KMDW 
9nm SE 
241730Z 2418/2518 20017G29KT P6SM FEW120 FM250100 24014KT P6SM SCT080 BKN120 FM250500 31014G22KT P6SM FEW250
KDPA 
15nm W 
241730Z 2418/2518 20017G29KT P6SM FEW120 FM250100 24014KT P6SM SCT080 BKN120 FM250500 31014G22KT P6SM FEW250
NOTAMs
Click for the latest NOTAMs
NOTAMs are issued by the DoD/FAA and will open in a separate window not controlled by AirNav.

 

 
 

Would you like to see your business listed on this page?

 If your business provides an interesting product or service to pilots, flight crews, aircraft, or users of the Center Point Heliport, you should consider listing it here.  To start the listing process, click on the button below
 
Add a business
 

Other Pages about Center Point Heliport

Update a link
 
Copyright © AirNav, LLC. All rights reserved. Privacy Policy  Contact